#timestamp,LO_Frequency,Hit,StdDev 
1655892015.8,286046999.7,N
1655892035.6,286047002.8,N
1655892055.5,286046999.9,N
1655892075.3,286046999.7,N
1655892095.1,286047002.4,N
1655892115.9,286047000.3,N
1655892135.7,286047000.4,N
1655892155.6,286047000.3,N
1655892175.4,286047001.1,N
1655892195.2,286047001.0,N
1655892215.1,286047000.1,N
1655892216.0,286047000.1,N
1655892235.8,286046999.9,N
1655892255.7,286047000.6,N
1655892275.5,286047000.1,N
1655892295.3,286047000.4,N
1655892315.2,286047000.3,N
1655892335.9,286046999.9,N
1655892355.7,286047000.9,N
1655892375.6,286047001.0,N
1655892395.4,286046999.9,N
1655892415.3,286047000.3,N
1655892435.1,286047000.4,N
1655892436.0,286047000.4,N
1655892455.8,286047000.4,N
1655892475.7,286046998.1,N
1655892495.5,286047001.1,N
1655892515.3,286047000.8,N
1655892535.2,286046998.2,N
1655892555.0,286046998.2,N
1655892555.9,286046998.2,N
1655892575.8,286047001.1,N
1655892595.6,286047001.2,N
1655892615.4,286047000.8,N
1655892635.3,286047000.7,N
1655892655.1,286047000.6,N
1655892675.8,286046998.5,N
1655892695.7,286046998.6,N
1655892715.5,286047000.9,N
1655892735.4,286047000.5,N
1655892755.2,286046999.7,N
1655892775.0,286047000.1,N
1655892775.9,286047000.1,N
1655892795.8,286046998.5,N
1655892815.6,286046998.3,N
1655892835.4,286047001.2,N
1655892855.3,286047000.5,N
1655892875.1,286046999.8,N
1655892895.9,286046999.7,N
1655892915.7,286047002.4,N
1655892935.5,286047002.8,N
1655892955.4,286047002.4,N
1655892975.2,286047002.8,N
1655892995.1,286047002.1,N
1655892996.0,286047002.1,N
1655893015.8,286047002.0,N
1655893035.6,286047001.8,N
1655893055.5,286047001.5,N
1655893075.3,286047002.6,N
1655893095.2,286047002.6,N
1655893115.0,286047002.8,N
1655893115.9,286047002.8,N
1655893135.7,286047000.5,N
1655893155.6,286047000.4,N
1655893175.4,286047000.9,N
1655893195.3,286046998.1,N
1655893215.1,286046998.2,N
1655893216.0,286046998.2,N
1655893235.8,286047000.4,N
1655893255.7,286046999.8,N
1655893275.5,286047002.3,N
1655893295.4,286047002.7,N
1655893315.2,286047001.0,N
1655893335.0,286047001.0,N
1655893335.9,286047001.0,N
1655893355.8,286047002.7,N
1655893375.6,286047001.7,N
1655893395.4,286047003.9,N
1655893415.3,286047002.5,N
1655893435.1,286046999.9,N
1655893455.9,286047001.2,N
1655893475.7,286047000.4,N
1655893495.5,286047000.2,N
1655893515.4,286047002.7,N
1655893535.2,286047002.7,N
1655893555.1,286047002.4,N
1655893556.0,286047002.4,N
1655893575.8,286047000.7,N
1655893595.6,286047000.0,N
1655893615.5,286047002.8,N
1655893635.3,286046999.7,N
1655893655.1,286047002.4,N
1655893675.9,286047002.3,N
1655893695.7,286047002.6,N
1655893715.6,286047000.4,N
1655893735.4,286047000.8,N
1655893755.2,286047001.2,N
1655893775.1,286046998.5,N
1655893776.0,286046998.5,N
1655893795.8,286046998.5,N
1655893815.6,286046998.4,N
1655893835.5,286046998.1,N
1655893855.3,286047000.6,N
1655893875.2,286047000.3,N
1655893895.0,286047000.3,N
1655893895.9,286047000.3,N
1655893915.7,286046998.1,N
1655893935.6,286046998.2,N
1655893955.4,286046998.5,N
1655893975.3,286046998.7,N
1655893995.1,286046998.3,N
1655893996.0,286046998.3,N
1655894015.8,286047001.0,N
1655894035.7,286046999.4,N
1655894055.5,286046998.9,N
1655894075.4,286046999.3,N
1655894095.2,286046998.9,N
1655894115.0,286046999.1,N
1655894115.9,286046999.1,N
1655894135.8,286046999.4,N
1655894155.6,286046998.7,N
1655894175.4,286046999.5,N
1655894195.3,286046998.8,N
1655894215.1,286046999.2,N
1655894235.9,286046996.7,Y
1655894255.7,286046997.2,P
1655894275.5,286046999.5,N
1655894295.4,286046997.4,N
1655894315.2,286046996.8,Y
1655894335.1,286046999.1,P
1655894336.0,286046999.1,N
1655894355.8,286046999.4,N
1655894375.6,286046998.3,Y
1655894395.5,286047001.0,P
1655894415.3,286047000.8,N
1655894435.1,286047000.7,N
1655894455.9,286047001.0,N
1655894475.7,286047001.1,N
1655894495.6,286047000.9,N
1655894515.4,286047000.9,N
1655894535.2,286047000.5,N
1655894555.1,286047000.8,N
1655894556.0,286047000.8,N
1655894575.8,286046999.9,N
1655894595.7,286047000.9,N
1655894615.5,286046999.9,N
1655894635.3,286046999.7,N
1655894655.2,286047001.9,Y
1655894675.0,286046999.7,P
1655894675.9,286046999.7,N
1655894695.8,286047002.2,P
1655894715.6,286047002.8,N
1655894735.4,286047000.2,N
1655894755.3,286047000.3,N
1655894775.1,286047000.8,N
1655894795.8,286047000.7,N
1655894815.7,286046998.6,N
1655894835.5,286046999.0,N
1655894855.4,286046999.0,N
1655894875.2,286047001.0,N
1655894895.0,286046998.4,N
1655894895.9,286046998.4,N
1655894915.8,286047001.1,N
1655894935.6,286047000.5,N
1655894955.4,286047000.8,N
1655894975.3,286047001.2,N
1655894995.1,286047000.9,N
1655895015.9,286047000.8,N
1655895035.7,286047001.1,N
1655895055.5,286046999.0,N
1655895075.4,286046998.6,N
1655895095.2,286046998.9,N
1655895115.1,286046998.4,N
1655895116.0,286046998.4,N
1655895135.8,286046999.6,N
1655895155.6,286046999.5,N
1655895175.5,286046997.7,N
1655895195.3,286046996.5,N
1655895215.1,286046997.4,N
1655895235.9,286046997.1,N
1655895255.7,286046996.7,N
1655895275.6,286046998.8,N
1655895295.4,286046998.2,N
1655895315.2,286046998.6,N
1655895335.1,286046998.4,N
1655895336.0,286046998.4,N
1655895355.8,286046998.3,N
1655895375.6,286046998.6,N
1655895395.5,286046999.6,N
1655895415.3,286046996.9,N
1655895435.2,286046996.5,N
1655895455.9,286046997.0,N
1655895475.7,286046996.5,N
1655895495.6,286046997.1,N
1655895515.4,286046999.5,N
1655895535.2,286046996.5,N
1655895555.1,286046997.3,N
1655895556.0,286046997.3,N
1655895575.8,286046997.7,N
1655895595.7,286046995.0,Y
